CW9688 Weather Reports


Display with metric or nautical units.
time (UTC)temp
F
wind
direction
speed
MPH
gust
MPH
rain 1hr
in
rain 24hr
in
rain mn
in
humidity
%
barometer
mb
20260505010804 58 30 0.0 2.0 0.00 0.00 0.00 49 1010.4
20260505005304 59 5 1.0 5.0 0.00 0.00 0.00 49 1010.4
20260505004804 59 9 1.0 5.0 0.00 0.00 0.00 48 1010.4
20260505004303 59 35 2.0 7.0 0.00 0.00 0.00 47 1010.4
20260505003804 58 359 6.0 12.0 0.00 0.00 0.00 47 1010.4
20260505003304 58 354 8.0 12.0 0.00 0.00 0.00 48 1010.4
20260505002804 59 349 7.0 13.0 0.00 0.00 0.00 48 1010.4
20260505002304 59 338 7.0 17.0 0.00 0.00 0.00 47 1010.4
20260505001303 61 343 10.0 15.0 0.00 0.00 0.00 42 1010.4
20260505000803 61 335 6.0 14.0 0.00 0.00 0.00 39 1010.4
20260505000304 61 347 7.0 13.0 0.00 0.00 0.00 38 1010.4
20260504235804 62 357 7.0 17.0 0.00 0.00 0.00 38 1010.4
20260504233804 62 325 9.0 13.0 0.00 0.00 0.00 40 1010.4
20260504233304 62 354 9.0 14.0 0.00 0.00 0.00 41 1010.4
20260504232804 63 10 5.0 8.0 0.00 0.00 0.00 37 1010.4
20260504232304 62 211 2.0 5.0 0.00 0.00 0.00 37 1010.4
20260504230804 62 92 6.0 13.0 0.00 0.00 0.00 38 1010.4
20260504230304 63 258 10.0 21.0 0.00 0.00 0.00 39 1010.4
20260504224304 64 345 8.0 12.0 0.00 0.00 0.00 32 1010.4
20260504223304 64 355 9.0 16.0 0.00 0.00 0.00 32 1010.4
20260504222804 64 340 8.0 20.0 0.00 0.00 0.00 32 1010.4
20260504221803 65 3 10.0 17.0 0.00 0.00 0.00 31 1010.4
20260504220304 66 6 12.0 20.0 0.00 0.00 0.00 30 1010.4
20260504215804 67 355 11.0 26.0 0.00 0.00 0.00 29 1010.4
20260504214804 68 16 16.0 24.0 0.00 0.00 0.00 29 1010.4
20260504214304 68 5 13.0 26.0 0.00 0.00 0.00 30 1010.4
20260504212804 68 7 15.0 25.0 0.00 0.00 0.00 29 1010.4
20260504210804 67 350 12.0 20.0 0.00 0.00 0.00 27 1010.4
20260504210304 68 332 6.0 10.0 0.00 0.00 0.00 25 1010.4
20260504205803 68 252 4.0 9.0 0.00 0.00 0.00 24 1010.4
20260504205304 67 255 4.0 8.0 0.00 0.00 0.00 24 1010.4
20260504204803 68 223 5.0 9.0 0.00 0.00 0.00 23 1010.4
20260504203303 67 164 5.0 7.0 0.00 0.00 0.00 23 1010.4
20260504202804 67 216 6.0 12.0 0.00 0.00 0.00 24 1010.4
20260504201303 66 178 8.0 20.0 0.00 0.00 0.00 27 1010.4
20260504200804 66 212 13.0 25.0 0.00 0.00 0.00 26 1010.4
20260504194803 71 219 3.0 6.0 0.00 0.00 0.00 18 1010.4
20260504194303 71 346 4.0 7.0 0.00 0.00 0.00 18 1010.4
20260504193304 72 353 5.0 8.0 0.00 0.00 0.00 19 1010.4
20260504191804 72 287 6.0 13.0 0.00 0.00 0.00 19 1010.4
20260504191304 72 355 4.0 8.0 0.00 0.00 0.00 20 1010.4
20260504184803 72 314 6.0 12.0 0.00 0.00 0.00 20 1010.4
20260504182803 75 307 6.0 14.0 0.00 0.00 0.00 18 1010.4
20260504182304 76 329 7.0 15.0 0.00 0.00 0.00 20 1010.4
20260504181804 75 279 9.0 14.0 0.00 0.00 0.00 21 1010.4
20260504175804 73 276 10.0 18.0 0.00 0.00 0.00 22 1010.4
20260504175304 72 333 10.0 20.0 0.00 0.00 0.00 23 1010.4
20260504173304 71 302 7.0 15.0 0.00 0.00 0.00 24 1010.4
20260504172803 72 319 8.0 18.0 0.00 0.00 0.00 23 1010.4
20260504170803 71 286 9.0 20.0 0.00 0.00 0.00 24 1010.4
20260504160303 67 276 10.0 18.0 0.00 0.00 0.00 26 1010.4
20260504140805 55 171 1.0 3.0 0.00 0.00 0.00 40 1010.4
20260504130305 49 0 0.0 0.0 0.00 0.00 0.00 45 1010.4
20260504120304 44 169 0.0 1.0 0.00 0.00 0.00 54 1010.4
20260504110305 43 202 2.0 3.0 0.00 0.00 0.00 58 1010.4
20260504100305 45 202 1.0 2.0 0.00 0.00 0.00 53 1010.4
20260504081305 48 202 1.0 2.0 0.00 0.00 0.00 47 1010.4
20260504080305 48 202 1.0 2.0 0.00 0.00 0.00 45 1010.4
20260504045805 60 212 2.0 3.0 0.00 0.00 0.00 30 1010.4
20260504044805 62 229 2.0 3.0 0.00 0.00 0.00 28 1010.4
20260504043804 62 219 3.0 6.0 0.00 0.00 0.00 28 1010.4
20260504043305 62 206 3.0 5.0 0.00 0.00 0.00 28 1010.4
20260504042804 62 220 3.0 6.0 0.00 0.00 0.00 28 1010.4
20260504041304 63 209 3.0 6.0 0.00 0.00 0.00 28 1010.4
20260504040804 63 202 3.0 6.0 0.00 0.00 0.00 28 1010.4
20260504035805 63 207 3.0 6.0 0.00 0.00 0.00 28 1010.4
20260504034804 63 217 3.0 6.0 0.00 0.00 0.00 27 1010.4
20260504034305 62 211 3.0 6.0 0.00 0.00 0.00 28 1010.4
20260504033805 62 208 2.0 5.0 0.00 0.00 0.00 28 1010.4
20260504031804 63 204 4.0 8.0 0.00 0.00 0.00 28 1010.4
20260504031304 63 194 3.0 7.0 0.00 0.00 0.00 28 1010.4
20260504024805 64 230 5.0 7.0 0.00 0.00 0.00 26 1010.4
20260504024304 64 167 4.0 7.0 0.00 0.00 0.00 27 1010.4
20260504023804 64 197 3.0 8.0 0.00 0.00 0.00 27 1010.4
20260504022805 64 188 3.0 5.0 0.00 0.00 0.00 26 1010.4
20260504022305 64 197 4.0 7.0 0.00 0.00 0.00 26 1010.4
20260504021305 64 173 5.0 7.0 0.00 0.00 0.00 26 1010.4
20260504020805 64 199 3.0 5.0 0.00 0.00 0.00 26 1010.4
20260504020304 64 233 2.0 5.0 0.00 0.00 0.00 26 1010.4
20260504015805 65 219 1.0 2.0 0.00 0.00 0.00 25 1010.4
20260504015305 66 355 0.0 3.0 0.00 0.00 0.00 25 1010.4
20260504014804 66 331 2.0 3.0 0.00 0.00 0.00 25 1010.4
20260504014305 67 224 1.0 3.0 0.00 0.00 0.00 23 1010.4
20260504013805 67 236 2.0 7.0 0.00 0.00 0.00 22 1010.4
20260504013304 67 290 9.0 17.0 0.00 0.00 0.00 21 1010.4
20260504012305 67 318 7.0 12.0 0.00 0.00 0.00 22 1010.4